User: anonymous   Login
Location: Bakov nad Jizerou
(50.4784°N, 14.9394°E)
Time: 10:36:45
(UTC+00:00)
Language:

Cosmos 2058 Rocket - Orbit

View from above orbital plane
View from above orbital plane
View from above satellite
View from above satellite

Ground track
Ground track

The orbit data is extracted from the following two-line orbital elements,

1 20466U 90010B   21267.78005685  .00000122  00000-0  12544-4 0  9990
2 20466  82.5063 352.2213 0019050 250.6823 109.2331 14.81438684687471
Epoch (UTC): 24 September 2021 18:43:16
Eccentricity: 0.0019050
inclination: 82.5063°
perigee height: 611 km
apogee height: 638 km
right ascension of ascending node: 352.2213°
argument of perigee: 250.6823°
revolutions per day: 14.81438684
mean anomaly at epoch: 109.2331°
orbit number at epoch: 68747

The dashed part of the orbit path shows where the satellite is in the earth's shadow,  

DLR